QPF
0.00 0.00 0.00 0.00 0.00 0.00 0.00 0.00 0.00 0.00 0.00 0.00 0.00 0.00 0.00 0.00 0.00 0.00 0.00 0.00 0.00 0.00 0.00 0.00 0.00 0.00 0.00 0.00 0.00 0.00 0.00 0.00
0.00 0.00 0.00 0.00 0.00 0.00 0.00 0.00 0.00 0.00 0.00 0.00 0.00 0.00 0.00 0.00 0.00 0.00 0.00 0.00 0.00 0.00 0.00 0.00 0.00 0.00 0.00 0.00 0.00 0.00 0.00 0.00
0.00 0.00 0.01 0.01 0.00 0.00 0.00 0.00 0.00 0.00 0.00 0.00 0.00 0.00 0.00 0.00 0.00 0.00 0.00 0.00 0.00 0.00 0.00 0.00 0.00 0.00 0.00 0.00 0.00 0.00 0.00 0.00
0.00 0.00 0.00 0.00 0.00 0.00 0.00 0.00 0.00 0.00 0.00 0.00 0.00 0.00 0.00 0.00 0.00 0.00 0.00 0.00 0.00 0.00 0.00 0.00 0.00 0.00 0.00 0.00 0.00 0.00 0.00 0.00
0.00 0.00 0.00 0.00 0.00 0.00 0.00 0.00 0.00 0.00 0.00 0.00 0.00 0.00 0.00 0.00 0.00 0.00 0.00 0.00 0.00 0.00 0.00 0.00 0.00 0.00 0.00 0.00 0.00 0.00 0.00 0.00
0.00 0.00 0.00 0.00 0.00 0.00 0.00 0.00 0.00 0.00 0.00 0.00 0.00 0.00 0.00 0.00 0.00 0.00 0.00 0.00 0.00 0.00 0.00 0.00 0.00 0.00 0.00 0.00 0.00 0.00 0.00 0.00
0.00 0.00 0.00 0.00 0.00 0.00 0.00 0.00 0.00 0.00 0.00 0.00 0.00 0.00 0.00 0.00 0.00 0.00 0.00 0.00 0.00 0.00 0.00 0.00 0.00 0.00 0.00 0.00 0.00 0.00 0.00 0.00
0.00 0.00 0.00 0.00 0.00 0.00 0.00 0.00 0.00 0.00 0.00 0.00 0.00 0.00 0.00 0.00 0.00 0.00 0.00 0.00 0.00 0.00 0.00 0.00 0.00 0.00 0.00 0.00 0.00 0.00 0.00 0.00
0.00 0.00 0.00 0.00 0.00 0.00 0.00 0.00 0.00 0.00 0.00 0.00 0.00 0.00 0.00 0.00 0.00 0.00 0.00 0.00 0.00 0.00 0.00 0.00 0.00 0.00 0.00 0.00 0.00 0.00 0.00 0.00
0.00 0.00 0.00 0.00 0.00 0.00 0.00 0.00 0.00 0.00 0.00 0.00 0.00 0.00 0.00 0.00 0.00 0.00 0.00 0.00 0.00 0.00 0.00 0.00 0.00 0.00 0.00 0.00 0.00 0.00 0.00 0.00
0.00 0.00 0.00 0.00 0.00 0.00 0.00 0.00 0.00 0.00 0.00 0.00 0.00 0.00 0.00 0.00 0.00 0.00 0.00 0.00 0.00 0.00 0.00 0.00 0.00 0.00 0.00 0.00 0.00 0.00 0.00 0.00
0.00 0.00 0.00 0.00 0.00 0.00 0.00 0.00 0.00 0.00 0.00 0.00 0.00 0.00 0.00 0.00 0.00 0.00 0.00 0.00 0.00 0.00 0.00 0.00 0.00 0.00 0.00 0.00 0.00 0.00 0.00 0.00
0.00 0.00 0.00 0.00 0.00 0.00 0.00 0.00 0.00 0.00 0.00 0.00 0.00 0.00 0.00 0.00 0.00 0.00 0.00 0.00 0.00 0.00 0.00 0.00 0.00 0.00 0.00 0.00 0.00 0.00 0.00 0.00
0.00 0.00 0.00 0.00 0.00 0.00 0.00 0.00 0.00 0.00 0.00 0.00 0.00 0.00 0.00 0.00 0.00 0.00 0.00 0.00 0.00 0.00 0.00 0.00 0.00 0.00 0.00 0.00 0.00 0.00 0.00 0.00
0.00 0.00 0.00 0.00 0.00 0.00 0.00 0.00 0.00 0.00 0.00 0.00 0.00 0.00 0.00 0.00 0.00 0.00 0.00 0.00 0.00 0.00 0.00 0.00 0.00 0.00 0.00 0.00 0.00 0.00 0.00 0.00
0.00 0.00 0.00 0.00 0.00 0.00 0.00 0.00 0.00 0.00 0.00 0.00 0.00 0.00 0.00 0.00 0.00 0.00 0.00 0.00 0.00 0.00 0.00 0.00 0.00 0.00 0.00 0.00 0.00 0.00 0.00 0.00
0.00 0.00 0.00 0.00 0.00 0.00 0.00 0.00 0.00 0.00 0.00 0.00 0.00 0.00 0.00 0.00 0.00 0.00 0.00 0.00 0.00 0.00 0.00 0.00 0.00 0.00 0.00 0.00 0.00 0.00 0.00 0.00
0.00 0.00 0.00 0.00 0.00 0.00 0.00 0.00 0.00 0.00 0.00 0.00 0.00 0.00 0.00 0.00 0.00 0.00 0.00 0.00 0.00 0.00 0.00 0.00 0.00 0.00 0.00 0.00 0.00 0.00 0.00 0.00
0.00 0.00 0.00 0.00 0.00 0.00 0.00 0.00 0.00 0.00 0.00 0.00 0.00 0.00 0.00 0.00 0.00 0.00 0.00 0.00 0.00 0.00 0.00 0.00 0.00 0.00 0.00 0.00 0.00 0.00 0.00 0.00
MSLP
1016.18 1016.96 1017.99 1018.41 1018.70 1019.05 1019.32 1019.41 1019.75 1019.79 1020.23 1020.55 1021.25 1021.67 1021.63 1022.42 1022.07 1022.23 1021.95 1022.26 1022.17 1022.40 1022.22 1022.52 1022.61 1022.55 1022.69 1022.40 1022.41 1022.74 1023.16 1023.42
1016.73 1017.32 1018.18 1018.70 1019.16 1019.57 1020.02 1019.92 1019.62 1020.34 1020.58 1021.30 1021.52 1022.36 1022.76 1023.06 1022.40 1022.44 1022.61 1022.40 1022.45 1022.74 1022.48 1022.59 1023.08 1023.29 1023.30 1022.83 1023.05 1023.28 1023.10 1023.23
1016.54 1017.19 1018.19 1018.61 1019.36 1019.85 1020.20 1020.20 1020.05 1020.00 1020.97 1021.26 1021.46 1022.66 1023.23 1023.32 1023.12 1022.96 1023.10 1023.25 1022.79 1022.83 1022.66 1022.94 1023.20 1023.60 1023.72 1023.29 1023.29 1024.02 1023.46 1023.60
1015.85 1016.63 1017.60 1018.28 1018.92 1019.65 1019.98 1020.16 1020.09 1020.51 1021.05 1021.29 1021.88 1022.77 1023.05 1023.71 1023.64 1023.77 1023.90 1023.53 1023.39 1023.71 1022.77 1023.27 1023.50 1023.76 1024.40 1023.96 1024.22 1024.34 1024.30 1024.39
1015.15 1015.92 1016.91 1017.70 1018.36 1019.10 1019.59 1019.86 1020.14 1020.67 1021.18 1021.55 1021.84 1022.71 1023.29 1024.24 1023.78 1024.38 1024.53 1024.29 1024.00 1024.15 1023.55 1024.08 1024.12 1024.30 1024.36 1024.47 1024.65 1024.81 1024.97 1024.96
1013.85 1014.80 1015.93 1017.10 1017.95 1018.63 1019.17 1019.63 1020.23 1020.70 1021.05 1021.51 1022.25 1023.02 1023.51 1023.87 1024.20 1024.47 1024.90 1024.76 1024.43 1024.17 1024.21 1024.66 1024.81 1025.12 1024.71 1025.02 1025.46 1025.50 1025.65 1025.65
1013.24 1014.06 1015.20 1016.38 1017.36 1018.05 1018.79 1019.40 1020.00 1020.50 1021.00 1021.64 1022.19 1022.92 1023.62 1024.13 1024.41 1024.57 1025.21 1025.34 1024.93 1024.55 1024.83 1025.37 1025.57 1025.37 1025.51 1025.80 1025.88 1025.94 1026.12 1026.16
1012.38 1013.14 1014.23 1015.42 1016.51 1017.37 1018.26 1018.95 1019.72 1020.30 1020.88 1021.54 1022.16 1022.84 1023.38 1023.92 1024.47 1024.81 1025.21 1025.24 1025.25 1025.51 1025.64 1025.86 1025.74 1025.96 1026.36 1026.33 1026.22 1026.51 1026.49 1026.66
1011.01 1012.06 1013.29 1014.42 1015.70 1016.77 1017.70 1018.44 1019.30 1020.00 1020.76 1021.54 1022.19 1022.81 1023.36 1023.82 1024.19 1024.64 1025.11 1025.30 1025.73 1025.75 1025.85 1025.94 1026.18 1026.33 1026.77 1026.91 1026.88 1026.76 1027.08 1027.34
1009.89 1011.14 1012.29 1013.64 1014.97 1016.12 1017.10 1018.01 1018.93 1019.68 1020.57 1021.44 1022.13 1022.69 1023.19 1023.62 1024.05 1024.61 1025.05 1025.40 1025.59 1025.89 1026.09 1026.22 1026.36 1026.72 1027.01 1027.09 1027.12 1027.43 1027.56 1027.73
1009.22 1010.24 1011.45 1012.66 1013.96 1015.45 1016.57 1017.42 1018.40 1019.41 1020.25 1021.13 1021.88 1022.43 1022.89 1023.36 1023.90 1024.54 1025.00 1025.30 1025.58 1026.04 1026.28 1026.36 1026.62 1027.00 1027.17 1027.34 1027.57 1027.56 1027.84 1028.10
1008.29 1009.60 1011.01 1012.04 1013.43 1014.80 1016.06 1017.06 1018.06 1019.11 1019.88 1020.82 1021.66 1022.24 1022.70 1023.24 1023.82 1024.36 1024.86 1025.25 1025.60 1025.95 1026.21 1026.55 1026.89 1027.27 1027.39 1027.59 1027.82 1027.97 1028.26 1028.44
1007.39 1008.94 1010.40 1011.70 1013.05 1014.30 1015.37 1016.57 1017.70 1018.63 1019.54 1020.48 1021.39 1022.06 1022.57 1023.07 1023.71 1024.26 1024.64 1025.25 1025.48 1025.80 1026.15 1026.61 1027.08 1027.42 1027.63 1027.86 1028.00 1028.25 1028.44 1028.78
1007.27 1008.53 1010.08 1011.20 1012.51 1013.72 1014.79 1015.99 1017.27 1018.26 1019.15 1020.21 1021.21 1021.96 1022.48 1023.04 1023.63 1024.18 1024.60 1025.10 1025.48 1025.79 1026.25 1026.78 1027.20 1027.50 1027.72 1027.78 1027.97 1028.44 1028.73 1028.93
1006.95 1008.46 1009.74 1010.92 1012.05 1013.14 1014.30 1015.56 1016.74 1017.91 1018.85 1019.89 1021.01 1021.72 1022.28 1022.90 1023.55 1024.12 1024.63 1025.01 1025.50 1025.88 1026.19 1026.58 1026.99 1027.35 1027.54 1027.68 1028.09 1028.56 1028.85 1029.04
1006.27 1007.81 1009.34 1010.57 1011.82 1012.96 1013.89 1015.04 1016.32 1017.40 1018.55 1019.58 1020.62 1021.42 1022.08 1022.76 1023.45 1024.07 1024.64 1025.02 1025.34 1025.66 1026.19 1026.60 1026.89 1027.33 1027.44 1027.94 1028.20 1028.52 1028.82 1029.05
1005.89 1007.35 1008.68 1009.97 1011.12 1012.26 1013.38 1014.63 1015.82 1016.94 1018.14 1019.22 1020.26 1021.11 1021.85 1022.54 1023.20 1023.83 1024.50 1024.98 1025.40 1025.73 1026.20 1026.70 1027.08 1027.26 1028.04 1028.28 1028.43 1028.60 1028.84 1029.08
1005.41 1006.76 1007.88 1009.13 1010.33 1011.46 1012.69 1014.04 1015.41 1016.71 1017.81 1018.86 1019.88 1020.70 1021.48 1022.24 1022.93 1023.63 1024.31 1024.79 1025.23 1025.75 1026.20 1026.69 1027.30 1027.80 1028.16 1028.23 1028.47 1028.69 1028.98 1029.15
1004.67 1005.94 1007.31 1008.68 1009.84 1011.16 1012.36 1013.59 1014.91 1016.25 1017.41 1018.45 1019.49 1020.34 1021.15 1021.91 1022.63 1023.32 1024.00 1024.48 1024.97 1025.56 1026.03 1026.64 1027.31 1027.80 1028.10 1028.28 1028.53 1028.76 1028.92 1029.09
Thickness
5662 5659 5653 5653 5652 5651 5650 5650 5648 5648 5645 5644 5639 5637 5640 5637 5642 5642 5647 5647 5648 5647 5650 5648 5647 5647 5644 5644 5641 5637 5631 5627
5652 5653 5650 5647 5645 5643 5640 5640 5644 5638 5637 5633 5634 5628 5627 5626 5633 5633 5634 5636 5637 5637 5640 5639 5636 5634 5631 5633 5630 5626 5627 5623
5649 5649 5643 5643 5638 5636 5634 5634 5636 5638 5630 5630 5631 5621 5618 5617 5622 5624 5622 5623 5627 5628 5631 5628 5625 5621 5619 5621 5621 5614 5616 5612
5650 5649 5643 5640 5638 5634 5632 5630 5632 5631 5627 5626 5622 5613 5614 5610 5612 5611 5608 5612 5615 5613 5623 5617 5614 5613 5605 5610 5607 5604 5602 5600
5652 5649 5645 5642 5640 5635 5632 5631 5630 5627 5623 5620 5619 5613 5610 5601 5606 5600 5599 5602 5605 5603 5609 5604 5603 5601 5600 5599 5596 5593 5589 5587
5658 5653 5647 5642 5638 5634 5631 5629 5625 5621 5620 5617 5612 5606 5603 5600 5598 5597 5595 5595 5597 5599 5599 5594 5592 5590 5592 5589 5584 5583 5579 5579
5657 5654 5648 5643 5637 5634 5629 5627 5622 5618 5616 5612 5609 5605 5599 5597 5595 5594 5588 5587 5589 5591 5587 5582 5580 5581 5579 5575 5575 5575 5573 5572
5657 5655 5651 5645 5639 5634 5628 5625 5620 5616 5612 5608 5604 5598 5596 5594 5590 5587 5583 5582 5582 5579 5577 5575 5575 5571 5566 5567 5570 5568 5567 5564
5664 5660 5652 5646 5640 5634 5628 5623 5617 5613 5608 5603 5598 5595 5591 5588 5586 5582 5578 5577 5574 5573 5572 5570 5567 5565 5561 5561 5561 5563 5558 5555
5669 5663 5655 5646 5639 5633 5626 5620 5616 5610 5603 5597 5591 5589 5585 5583 5581 5578 5574 5571 5569 5567 5565 5564 5562 5558 5556 5557 5556 5551 5549 5547
5667 5666 5655 5648 5643 5632 5624 5619 5614 5605 5599 5592 5588 5584 5581 5578 5577 5571 5569 5566 5564 5561 5559 5558 5556 5553 5552 5550 5548 5547 5543 5541
5665 5662 5653 5648 5641 5631 5621 5616 5611 5602 5596 5589 5583 5580 5578 5574 5571 5566 5564 5561 5559 5556 5555 5553 5550 5546 5546 5544 5542 5540 5537 5534
5666 5660 5650 5644 5636 5629 5621 5613 5608 5599 5593 5587 5579 5575 5573 5570 5566 5562 5560 5556 5554 5552 5550 5547 5543 5541 5540 5538 5536 5534 5532 5528
5659 5657 5647 5642 5633 5626 5618 5612 5604 5596 5590 5583 5575 5570 5567 5564 5561 5557 5554 5552 5549 5546 5544 5541 5539 5537 5535 5534 5533 5529 5526 5524
5653 5650 5643 5637 5631 5625 5616 5609 5602 5593 5587 5580 5571 5567 5564 5560 5557 5553 5550 5548 5543 5541 5540 5538 5536 5534 5532 5531 5528 5524 5522 5519
5654 5647 5639 5633 5626 5620 5614 5607 5600 5591 5585 5577 5570 5565 5562 5558 5554 5550 5546 5544 5541 5539 5537 5535 5534 5530 5529 5526 5523 5521 5518 5515
5653 5646 5639 5632 5626 5620 5613 5605 5598 5590 5583 5576 5569 5565 5560 5556 5552 5547 5543 5541 5539 5538 5535 5532 5529 5527 5524 5521 5519 5518 5516 5513
5650 5644 5639 5633 5627 5622 5613 5604 5596 5587 5580 5574 5569 5565 5560 5554 5550 5545 5541 5538 5537 5534 5531 5529 5523 5520 5519 5519 5517 5514 5511 5508
5651 5645 5639 5632 5625 5618 5612 5603 5594 5585 5579 5573 5567 5562 5558 5553 5549 5544 5540 5537 5535 5531 5528 5524 5519 5517 5516 5515 5513 5510 5507 5505